This is the latest recevied weather packets stored in our database for station/object SP9MUF-14. If no packets are shown the sender has not sent any weather packets the latest 10 day(s).
| Time | Temp. | Humidity | Pressure | Rain* | Wind** | Luminosity | Snow |
|---|---|---|---|---|---|---|---|
| 1787830781 | 25.56° C | 42% | 1020.6 hPa | 0 mm | - | 625 W/m² | - |
| 1787830478 | 25° C | 43% | 1020.6 hPa | 0 mm | - | 640 W/m² | - |
| 1787830176 | 25° C | 43% | 1020.6 hPa | 0 mm | - | 614 W/m² | - |
| 1787829874 | 23.89° C | 44% | 1020.7 hPa | 0 mm | - | 620 W/m² | - |
| 1787829572 | 25° C | 45% | 1020.8 hPa | 0 mm | - | 624 W/m² | - |
| 1787829270 | 25° C | 46% | 1020.7 hPa | 0 mm | - | 628 W/m² | - |
| 1787828967 | 25° C | 47% | 1020.7 hPa | 0 mm | - | 654 W/m² | - |
| 1787828665 | 23.89° C | 46% | 1020.8 hPa | 0 mm | - | 651 W/m² | - |
| 1787828363 | 25° C | 45% | 1020.8 hPa | 0 mm | - | 649 W/m² | - |
| 1787828061 | 23.89° C | 47% | 1020.9 hPa | 0 mm | - | 630 W/m² | - |
| 1787827759 | 23.89° C | 48% | 1020.9 hPa | 0 mm | - | 636 W/m² | - |
| 1787827154 | 23.89° C | 48% | 1021 hPa | 0 mm | - | 635 W/m² | - |
| 1787826852 | 23.89° C | 48% | 1020.8 hPa | 0 mm | - | 640 W/m² | - |
| 1787826248 | 23.89° C | 48% | 1020.9 hPa | 0 mm | - | 633 W/m² | - |
| 1787825945 | 23.89° C | 47% | 1020.9 hPa | 0 mm | - | 641 W/m² | - |
| 1787825643 | 22.78° C | 49% | 1021.1 hPa | 0 mm | - | 636 W/m² | - |
| 1787825039 | 22.78° C | 50% | 1021 hPa | 0 mm | - | 613 W/m² | - |
| 1787824435 | 22.78° C | 51% | 1021.2 hPa | 0 mm | - | 607 W/m² | - |
| 1787824132 | 22.78° C | 52% | 1021.2 hPa | 0 mm | - | 599 W/m² | - |
| 1787823830 | 22.78° C | 53% | 1021.3 hPa | 0 mm | - | 599 W/m² | - |
| 1787823528 | 22.78° C | 55% | 1021.4 hPa | 0 mm | - | 596 W/m² | - |
| 1787823226 | 22.78° C | 52% | 1021.4 hPa | 0 mm | - | 599 W/m² | - |
| 1787822924 | 22.78° C | 53% | 1021.5 hPa | 0 mm | - | 592 W/m² | - |
| 1787821714 | 21.67° C | 59% | 1021.5 hPa | 0 mm | - | 566 W/m² | - |
| 1787821412 | 21.67° C | 58% | 1021.5 hPa | 0 mm | - | 559 W/m² | - |
* Rain latest hour (hover to see other rain measurements)
** Current wind speed in m/s (hover to see current wind gust speed)